HB9EYW-6 Weather Reports


Display with metric or nautical units.
time (UTC)temp
F
wind
direction
speed
MPH
gust
MPH
rain 1hr
in
rain 24hr
in
rain mn
in
humidity
%
barometer
mb
20260906095003 80 290 0.0 2.0 0.00 0.00 0.00 28
20260906094503 79 245 1.0 4.0 0.00 0.00 0.00 29
20260906094003 78 284 0.0 4.0 0.00 0.00 0.00 29
20260906093503 78 333 0.0 2.0 0.00 0.00 0.00 30
20260906093003 77 337 0.0 2.0 0.00 0.00 0.00 32
20260906092503 76 347 0.0 2.0 0.00 0.00 0.00 35
20260906092003 75 347 0.0 2.0 0.00 0.00 0.00 37
20260906091503 74 350 0.0 2.0 0.00 0.00 0.00 39
20260906091003 73 7 0.0 2.0 0.00 0.00 0.00 41
20260906090503 72 341 0.0 4.0 0.00 0.00 0.00 41
20260906090003 72 308 0.0 4.0 0.00 0.00 0.00 41
20260906085503 71 319 0.0 2.0 0.00 0.00 0.00 46
20260906085003 71 252 0.0 3.0 0.00 0.00 0.00 48
20260906084503 70 256 0.0 3.0 0.00 0.00 0.00 48
20260906084003 70 263 0.0 2.0 0.00 0.00 0.00 49
20260906083503 70 237 0.0 3.0 0.00 0.00 0.00 50
20260906083003 70 230 0.0 3.0 0.00 0.00 0.00 50
20260906082503 70 262 0.0 2.0 0.00 0.00 0.00 50
20260906082003 70 278 0.0 2.0 0.00 0.00 0.00 49
20260906081503 70 272 0.0 2.0 0.00 0.00 0.00 49
20260906081003 70 260 0.0 2.0 0.00 0.00 0.00 50
20260906080503 69 270 0.0 2.0 0.00 0.00 0.00 54
20260906080003 69 283 0.0 2.0 0.00 0.00 0.00 54
20260906075503 68 291 0.0 2.0 0.00 0.00 0.00 55
20260906075003 68 257 0.0 2.0 0.00 0.00 0.00 57
20260906074503 67 201 0.0 2.0 0.00 0.00 0.00 58
20260906074003 68 202 0.0 2.0 0.00 0.00 0.00 58
20260906073503 67 230 0.0 2.0 0.00 0.00 0.00 59
20260906073003 67 315 0.0 1.0 0.00 0.00 0.00 60
20260906072503 67 241 0.0 2.0 0.00 0.00 0.00 61
20260906072003 67 225 0.0 2.0 0.00 0.00 0.00 62
20260906071503 67 225 0.0 1.0 0.00 0.00 0.00 64
20260906071003 65 0 0.0 0.0 0.00 0.00 0.00 67
20260906070503 63 270 0.0 1.0 0.00 0.00 0.00 69
20260906070003 63 270 0.0 2.0 0.00 0.00 0.00 69
20260906065503 62 246 0.0 2.0 0.00 0.00 0.00 71
20260906065003 62 225 0.0 1.0 0.00 0.00 0.00 72
20260906064503 61 167 0.0 2.0 0.00 0.00 0.00 73
20260906064003 61 172 0.0 2.0 0.00 0.00 0.00 73
20260906063503 61 180 0.0 1.0 0.00 0.00 0.00 74
20260906063003 60 0 0.0 0.0 0.00 0.00 0.00 74
20260906062503 60 0 0.0 0.0 0.00 0.00 0.00 75
20260906062003 60 0 0.0 0.0 0.00 0.00 0.00 76
20260906061503 59 270 0.0 1.0 0.00 0.00 0.00 76
20260906061003 59 270 0.0 1.0 0.00 0.00 0.00 76
20260906060503 59 242 0.0 2.0 0.00 0.00 0.00 78
20260906060003 59 252 0.0 2.0 0.00 0.00 0.00 78
20260906055503 58 270 0.0 1.0 0.00 0.00 0.00 79
20260906055003 58 270 0.0 1.0 0.00 0.00 0.00 79
20260906054503 58 270 0.0 1.0 0.00 0.00 0.00 79
20260906054003 58 270 0.0 1.0 0.00 0.00 0.00 80
20260906053503 57 270 0.0 1.0 0.00 0.00 0.00 80
20260906053003 57 270 0.0 1.0 0.00 0.00 0.00 80
20260906052503 57 270 0.0 1.0 0.00 0.00 0.00 80
20260906052003 57 270 0.0 2.0 0.00 0.00 0.00 80
20260906051503 57 270 0.0 2.0 0.00 0.00 0.00 80
20260906051003 57 270 0.0 1.0 0.00 0.00 0.00 80
20260906050503 57 0 0.0 0.0 0.00 0.00 0.00 79
20260906050003 57 270 0.0 1.0 0.00 0.00 0.00 79
20260906045503 58 270 0.0 1.0 0.00 0.00 0.00 79
20260906045003 58 270 0.0 1.0 0.00 0.00 0.00 79
20260906044503 58 262 0.0 1.0 0.00 0.00 0.00 79
20260906044003 58 258 0.0 1.0 0.00 0.00 0.00 79
20260906043503 58 0 0.0 0.0 0.00 0.00 0.00 78
20260906043003 58 0 0.0 0.0 0.00 0.00 0.00 79
20260906042503 59 135 0.0 1.0 0.00 0.00 0.00 78
20260906042003 59 135 0.0 1.0 0.00 0.00 0.00 78
20260906041503 59 135 0.0 1.0 0.00 0.00 0.00 78
20260906041003 59 135 0.0 1.0 0.00 0.00 0.00 78
20260906040503 59 0 0.0 0.0 0.00 0.00 0.00 78
20260906040003 59 135 0.0 2.0 0.00 0.00 0.00 78
20260906035503 59 135 0.0 2.0 0.00 0.00 0.00 78
20260906035003 59 135 0.0 1.0 0.00 0.00 0.00 78
20260906034503 59 0 0.0 0.0 0.00 0.00 0.00 77
20260906034003 59 135 0.0 2.0 0.00 0.00 0.00 77
20260906033503 60 135 0.0 2.0 0.00 0.00 0.00 77
20260906033003 60 135 0.0 2.0 0.00 0.00 0.00 78
20260906032503 60 135 0.0 1.0 0.00 0.00 0.00 79
20260906032003 60 135 0.0 1.0 0.00 0.00 0.00 79
20260906031503 60 146 0.0 1.0 0.00 0.00 0.00 79
20260906031003 60 180 0.0 1.0 0.00 0.00 0.00 79
20260906030503 60 0 0.0 0.0 0.00 0.00 0.00 79
20260906030003 60 0 0.0 0.0 0.00 0.00 0.00 79
20260906025503 60 0 0.0 0.0 0.00 0.00 0.00 79
20260906025003 60 0 0.0 0.0 0.00 0.00 0.00 80
20260906024503 60 180 0.0 1.0 0.00 0.00 0.00 80
20260906024003 60 171 0.0 1.0 0.00 0.00 0.00 81
20260906023503 60 158 0.0 1.0 0.00 0.00 0.00 81
20260906023003 60 0 0.0 0.0 0.00 0.00 0.00 80
20260906022503 60 0 0.0 0.0 0.00 0.00 0.00 80
20260906022003 60 0 0.0 0.0 0.00 0.00 0.00 80
20260906021503 60 0 0.0 0.0 0.00 0.00 0.00 80
20260906021003 60 0 0.0 0.0 0.00 0.00 0.00 80
20260906020503 61 0 0.0 0.0 0.00 0.00 0.00 80
20260906020003 61 0 0.0 0.0 0.00 0.00 0.00 80
20260906015503 61 180 0.0 1.0 0.00 0.00 0.00 80
20260906015004 61 180 0.0 1.0 0.00 0.00 0.00 79
20260906014503 61 0 0.0 0.0 0.00 0.00 0.00 79
20260906014003 61 0 0.0 0.0 0.00 0.00 0.00 79
20260906013503 61 0 0.0 0.0 0.00 0.00 0.00 78
20260906013003 61 0 0.0 0.0 0.00 0.00 0.00 79
20260906012503 61 270 0.0 1.0 0.00 0.00 0.00 78
20260906012003 61 270 0.0 1.0 0.00 0.00 0.00 78
20260906011503 61 270 0.0 1.0 0.00 0.00 0.00 77
20260906011003 62 270 0.0 1.0 0.00 0.00 0.00 77
20260906010503 62 0 0.0 0.0 0.00 0.00 0.00 76
20260906010003 62 0 0.0 0.0 0.00 0.00 0.00 76
20260906005503 62 0 0.0 0.0 0.00 0.00 0.00 76
20260906005003 62 0 0.0 0.0 0.00 0.00 0.00 76
20260906004503 63 135 0.0 1.0 0.00 0.00 0.00 76
20260906004003 62 135 0.0 1.0 0.00 0.00 0.00 76
20260906003503 63 135 0.0 1.0 0.00 0.00 0.00 76
20260906003003 63 135 0.0 2.0 0.00 0.00 0.00 75
20260906002503 63 135 0.0 2.0 0.00 0.00 0.00 75
20260906002003 63 135 0.0 1.0 0.00 0.00 0.00 75
20260906001503 63 0 0.0 0.0 0.00 0.00 0.00 74
20260906001003 63 0 0.0 0.0 0.00 0.00 0.00 74
20260906000503 64 135 0.0 1.0 0.00 0.00 0.00 74
20260906000003 64 135 0.0 1.0 0.00 0.00 0.00 74
20260905235503 64 135 0.0 1.0 0.00 0.00 0.00 74
20260905235003 64 0 0.0 0.0 0.00 0.00 0.00 73
20260905234503 64 0 0.0 0.0 0.00 0.00 0.00 74
20260905234003 64 135 0.0 1.0 0.00 0.00 0.00 74
20260905233503 64 135 0.0 1.0 0.00 0.00 0.00 74
20260905233003 64 135 0.0 1.0 0.00 0.00 0.00 73
20260905232503 64 135 0.0 1.0 0.00 0.00 0.00 73
20260905232003 64 149 0.0 2.0 0.00 0.00 0.00 73
20260905231503 64 180 0.0 2.0 0.00 0.00 0.00 73
20260905231003 64 309 0.0 1.0 0.00 0.00 0.00 73
20260905230503 64 315 0.0 1.0 0.00 0.00 0.00 71
20260905230003 64 315 0.0 1.0 0.00 0.00 0.00 71
20260905225503 64 0 0.0 0.0 0.00 0.00 0.00 71
20260905225003 65 315 0.0 1.0 0.00 0.00 0.00 71
20260905224503 65 315 0.0 1.0 0.00 0.00 0.00 70
20260905224003 65 0 0.0 0.0 0.00 0.00 0.00 69
20260905223503 65 135 0.0 2.0 0.00 0.00 0.00 69
20260905223003 65 150 0.0 2.0 0.00 0.00 0.00 69
20260905222503 65 148 0.0 2.0 0.00 0.00 0.00 69
20260905222003 65 142 0.0 2.0 0.00 0.00 0.00 69
20260905221503 65 145 0.0 2.0 0.00 0.00 0.00 69
20260905221003 65 142 0.0 2.0 0.00 0.00 0.00 69
20260905220503 66 135 0.0 1.0 0.00 0.00 0.00 68
20260905220003 66 138 0.0 2.0 0.00 0.00 0.00 68
20260905215503 66 140 0.0 2.0 0.00 0.00 0.00 67
20260905215003 66 135 0.0 2.0 0.00 0.00 0.00 67
20260905214503 66 140 0.0 2.0 0.00 0.00 0.00 67
20260905214003 66 138 0.0 2.0 0.00 0.00 0.00 66
20260905213503 66 138 0.0 2.0 0.00 0.00 0.00 66
20260905213003 66 139 0.0 2.0 0.00 0.00 0.00 66
20260905212503 67 149 0.0 2.0 0.00 0.00 0.00 66
20260905212003 67 155 0.0 2.0 0.00 0.00 0.00 66
20260905211503 67 135 0.0 1.0 0.00 0.00 0.00 65
20260905211003 67 135 0.0 1.0 0.00 0.00 0.00 65
20260905210503 67 150 0.0 2.0 0.00 0.00 0.00 64
20260905210003 67 152 0.0 2.0 0.00 0.00 0.00 64
20260905205503 67 145 0.0 2.0 0.00 0.00 0.00 63
20260905205003 67 135 0.0 2.0 0.00 0.00 0.00 62
20260905204503 68 135 0.0 2.0 0.00 0.00 0.00 61
20260905204003 68 135 0.0 2.0 0.00 0.00 0.00 61
20260905203503 68 135 1.0 2.0 0.00 0.00 0.00 61
20260905203003 68 140 0.0 2.0 0.00 0.00 0.00 60
20260905202503 68 140 0.0 2.0 0.00 0.00 0.00 60
20260905202003 68 135 0.0 2.0 0.00 0.00 0.00 60
20260905201503 69 135 0.0 1.0 0.00 0.00 0.00 59
20260905201003 69 135 0.0 1.0 0.00 0.00 0.00 59
20260905200503 69 135 0.0 2.0 0.00 0.00 0.00 58
20260905200003 69 139 0.0 2.0 0.00 0.00 0.00 58
20260905195503 69 143 0.0 2.0 0.00 0.00 0.00 57
20260905195004 69 141 0.0 2.0 0.00 0.00 0.00 56
20260905194503 70 135 0.0 1.0 0.00 0.00 0.00 55
20260905194003 70 142 0.0 2.0 0.00 0.00 0.00 55
20260905193503 70 139 0.0 2.0 0.00 0.00 0.00 54
20260905193003 70 135 0.0 2.0 0.00 0.00 0.00 54
20260905192503 71 180 0.0 1.0 0.00 0.00 0.00 53
20260905192003 71 148 0.0 2.0 0.00 0.00 0.00 52
20260905191503 71 137 0.0 2.0 0.00 0.00 0.00 52
20260905191003 71 135 0.0 2.0 0.00 0.00 0.00 51
20260905190503 71 135 0.0 1.0 0.00 0.00 0.00 50
20260905190003 71 185 0.0 2.0 0.00 0.00 0.00 50
20260905185503 72 161 0.0 2.0 0.00 0.00 0.00 50
20260905185003 72 153 0.0 2.0 0.00 0.00 0.00 50
20260905184503 72 0 0.0 0.0 0.00 0.00 0.00 47
20260905184003 72 315 0.0 1.0 0.00 0.00 0.00 46
20260905183503 72 315 0.0 1.0 0.00 0.00 0.00 46
20260905183003 73 315 0.0 1.0 0.00 0.00 0.00 44
20260905182503 73 315 0.0 1.0 0.00 0.00 0.00 44
20260905182003 73 243 0.0 1.0 0.00 0.00 0.00 43
20260905181503 74 293 0.0 2.0 0.00 0.00 0.00 43
20260905181003 74 311 0.0 2.0 0.00 0.00 0.00 43
20260905180503 74 315 0.0 2.0 0.00 0.00 0.00 41
20260905180003 74 197 0.0 2.0 0.00 0.00 0.00 41
20260905175503 75 257 0.0 2.0 0.00 0.00 0.00 41
20260905175003 75 256 0.0 2.0 0.00 0.00 0.00 41
20260905174503 75 251 0.0 2.0 0.00 0.00 0.00 40
20260905174003 75 251 0.0 5.0 0.00 0.00 0.00 40
20260905173503 75 250 1.0 5.0 0.00 0.00 0.00 39
20260905173003 76 234 2.0 5.0 0.00 0.00 0.00 38
20260905172503 76 209 1.0 4.0 0.00 0.00 0.00 38
20260905172003 76 221 0.0 5.0 0.00 0.00 0.00 38
20260905171503 76 233 1.0 5.0 0.00 0.00 0.00 38
20260905171003 76 208 2.0 5.0 0.00 0.00 0.00 37
20260905170503 77 219 1.0 4.0 0.00 0.00 0.00 36
20260905170003 77 285 1.0 8.0 0.00 0.00 0.00 36
20260905165503 77 279 1.0 8.0 0.00 0.00 0.00 35
20260905165003 77 256 2.0 4.0 0.00 0.00 0.00 36
20260905164503 78 264 2.0 4.0 0.00 0.00 0.00 36
20260905164003 78 269 2.0 4.0 0.00 0.00 0.00 36
20260905163503 78 274 2.0 6.0 0.00 0.00 0.00 35
20260905163003 78 309 2.0 6.0 0.00 0.00 0.00 34
20260905162503 79 291 3.0 7.0 0.00 0.00 0.00 32
20260905162003 80 271 2.0 7.0 0.00 0.00 0.00 33
20260905161503 81 291 1.0 6.0 0.00 0.00 0.00 32
20260905161003 82 303 2.0 4.0 0.00 0.00 0.00 33
20260905160503 80 297 1.0 4.0 0.00 0.00 0.00 36
20260905160003 80 293 1.0 4.0 0.00 0.00 0.00 36
20260905155503 79 301 2.0 6.0 0.00 0.00 0.00 36
20260905155003 79 282 2.0 6.0 0.00 0.00 0.00 35
20260905154503 79 267 3.0 6.0 0.00 0.00 0.00 36
20260905154003 78 272 2.0 5.0 0.00 0.00 0.00 37
20260905153503 78 286 1.0 8.0 0.00 0.00 0.00 39
20260905153003 77 279 2.0 8.0 0.00 0.00 0.00 39
20260905152503 77 257 1.0 7.0 0.00 0.00 0.00 38
20260905152003 77 292 0.0 5.0 0.00 0.00 0.00 38
20260905151503 77 319 2.0 5.0 0.00 0.00 0.00 39
20260905151003 77 312 2.0 5.0 0.00 0.00 0.00 38
20260905150503 77 313 3.0 8.0 0.00 0.00 0.00 38
20260905150003 77 301 3.0 8.0 0.00 0.00 0.00 38
20260905145503 77 260 2.0 7.0 0.00 0.00 0.00 37
20260905145003 77 270 1.0 4.0 0.00 0.00 0.00 38
20260905144503 77 278 0.0 6.0 0.00 0.00 0.00 38
20260905144003 77 260 2.0 6.0 0.00 0.00 0.00 38
20260905143503 78 157 2.0 4.0 0.00 0.00 0.00 38
20260905143003 77 158 1.0 3.0 0.00 0.00 0.00 40
20260905142503 77 184 0.0 2.0 0.00 0.00 0.00 41
20260905142003 77 235 0.0 2.0 0.00 0.00 0.00 42
20260905141503 77 267 0.0 2.0 0.00 0.00 0.00 43
20260905141003 76 270 0.0 2.0 0.00 0.00 0.00 43
20260905140503 76 270 1.0 2.0 0.00 0.00 0.00 43
20260905140004 76 265 1.0 2.0 0.00 0.00 0.00 43
20260905135503 75 203 0.0 4.0 0.00 0.00 0.00 44
20260905135003 75 181 0.0 4.0 0.00 0.00 0.00 44
20260905134503 75 295 1.0 4.0 0.00 0.00 0.00 43
20260905134003 75 266 2.0 4.0 0.00 0.00 0.00 43
20260905133503 75 243 1.0 3.0 0.00 0.00 0.00 43
20260905133003 75 258 0.0 3.0 0.00 0.00 0.00 43
20260905132503 75 252 0.0 3.0 0.00 0.00 0.00 43
20260905132003 75 242 0.0 5.0 0.00 0.00 0.00 42
20260905131503 75 260 2.0 5.0 0.00 0.00 0.00 42
20260905131003 76 315 1.0 4.0 0.00 0.00 0.00 41
20260905130503 76 309 0.0 4.0 0.00 0.00 0.00 41
20260905130003 76 233 0.0 4.0 0.00 0.00 0.00 41
20260905125503 76 308 2.0 6.0 0.00 0.00 0.00 41
20260905125003 76 329 2.0 6.0 0.00 0.00 0.00 41
20260905124503 77 344 2.0 4.0 0.00 0.00 0.00 41
20260905124003 77 48 0.0 5.0 0.00 0.00 0.00 40
20260905123503 77 234 1.0 5.0 0.00 0.00 0.00 39
20260905123003 77 290 1.0 5.0 0.00 0.00 0.00 39
20260905122503 77 304 2.0 5.0 0.00 0.00 0.00 40
20260905122003 76 297 2.0 5.0 0.00 0.00 0.00 43
20260905121503 76 318 2.0 4.0 0.00 0.00 0.00 44
20260905121003 75 317 2.0 4.0 0.00 0.00 0.00 45
20260905120503 76 314 2.0 7.0 0.00 0.00 0.00 45
20260905120003 76 217 2.0 7.0 0.00 0.00 0.00 45
20260905115503 76 192 1.0 4.0 0.00 0.00 0.00 47
20260905115003 75 269 2.0 7.0 0.00 0.00 0.00 47
20260905114503 75 282 2.0 7.0 0.00 0.00 0.00 47
20260905114003 75 278 1.0 6.0 0.00 0.00 0.00 49
20260905113503 75 336 1.0 6.0 0.00 0.00 0.00 48
20260905113003 75 254 2.0 6.0 0.00 0.00 0.00 44
20260905112503 75 216 2.0 7.0 0.00 0.00 0.00 41
20260905112003 75 216 2.0 7.0 0.00 0.00 0.00 40
20260905111503 76 264 2.0 8.0 0.00 0.00 0.00 42
20260905111003 76 275 3.0 8.0 0.00 0.00 0.00 45
20260905110503 76 263 1.0 4.0 0.00 0.00 0.00 45
20260905110003 76 279 1.0 5.0 0.00 0.00 0.00 45
20260905105503 76 311 0.0 6.0 0.00 0.00 0.00 45
20260905105003 76 301 1.0 7.0 0.00 0.00 0.00 44
20260905104503 76 284 2.0 7.0 0.00 0.00 0.00 43
20260905104003 76 275 2.0 7.0 0.00 0.00 0.00 43
20260905103503 77 264 3.0 5.0 0.00 0.00 0.00 42
20260905103003 77 258 2.0 4.0 0.00 0.00 0.00 41
20260905102503 78 253 1.0 4.0 0.00 0.00 0.00 40
20260905102003 78 293 2.0 4.0 0.00 0.00 0.00 41
20260905101503 77 252 1.0 3.0 0.00 0.00 0.00 43
20260905101003 76 238 1.0 3.0 0.00 0.00 0.00 44
20260905100503 76 236 2.0 5.0 0.00 0.00 0.00 45
20260905100003 76 250 2.0 6.0 0.00 0.00 0.00 45
20260905095503 76 262 2.0 6.0 0.00 0.00 0.00 44